GW4436 Weather Reports


Display with metric or nautical units.
time (UTC)temp
F
wind
direction
speed
MPH
gust
MPH
rain 1hr
in
rain 24hr
in
rain mn
in
humidity
%
barometer
mb
20260505201003 82 143 3.0 11.0 0.00 0.00 0.00 46 1016.4
20260505200504 82 186 3.0 11.0 0.00 0.00 0.00 46 1016.4
20260505200013 82 98 5.0 13.0 0.00 0.00 0.00 46 1016.5
20260505195504 81 157 6.0 13.0 0.00 0.00 0.00 47 1016.6
20260505195005 82 149 7.0 11.0 0.00 0.00 0.00 46 1016.7
20260505194530 82 160 7.0 11.0 0.00 0.00 0.00 47 1016.6
20260505194006 82 165 5.0 10.0 0.00 0.00 0.00 47 1016.6
20260505193509 82 162 2.0 12.0 0.00 0.00 0.00 46 1016.7
20260505193012 83 174 8.0 12.0 0.00 0.00 0.00 47 1016.7
20260505192504 82 108 3.0 9.0 0.00 0.00 0.00 46 1016.8
20260505192003 82 173 3.0 11.0 0.00 0.00 0.00 47 1016.8
20260505191532 81 108 5.0 11.0 0.00 0.00 0.00 47 1017.0
20260505191018 81 83 4.0 11.0 0.00 0.00 0.00 48 1016.9
20260505190505 81 128 5.0 13.0 0.00 0.00 0.00 48 1017.0
20260505190011 81 58 2.0 13.0 0.00 0.00 0.00 48 1016.9
20260505185504 82 108 6.0 11.0 0.00 0.00 0.00 48 1017.0
20260505185008 81 27 5.0 12.0 0.00 0.00 0.00 48 1017.0
20260505184528 81 156 4.0 12.0 0.00 0.00 0.00 47 1017.1
20260505184007 81 101 8.0 11.0 0.00 0.00 0.00 45 1017.1
20260505183509 82 71 3.0 9.0 0.00 0.00 0.00 46 1017.0
20260505183028 82 27 3.0 8.0 0.00 0.00 0.00 41 1017.1
20260505182503 82 43 2.0 8.0 0.00 0.00 0.00 41 1017.3
20260505182009 83 289 4.0 6.0 0.00 0.00 0.00 40 1017.3
20260505181504 83 79 4.0 6.0 0.00 0.00 0.00 40 1017.5
20260505181005 83 159 3.0 10.0 0.00 0.00 0.00 40 1017.5
20260505180510 82 139 5.0 10.0 0.00 0.00 0.00 41 1017.5
20260505180008 82 293 2.0 6.0 0.00 0.00 0.00 40 1017.5
20260505175502 82 222 4.0 8.0 0.00 0.00 0.00 42 1017.5
20260505175002 82 284 4.0 10.0 0.00 0.00 0.00 41 1017.6
20260505174002 81 188 5.0 9.0 0.00 0.00 0.00 45 1017.8
20260505173503 81 200 5.0 9.0 0.00 0.00 0.00 45 1017.8
20260505173002 80 185 3.0 8.0 0.00 0.00 0.00 44 1017.8
20260505172502 81 216 6.0 8.0 0.00 0.00 0.00 43 1017.8
20260505172003 81 259 4.0 9.0 0.00 0.00 0.00 44 1017.8
20260505171504 80 239 6.0 9.0 0.00 0.00 0.00 43 1017.8
20260505171004 81 207 5.0 9.0 0.00 0.00 0.00 44 1017.7
20260505170507 81 201 5.0 8.0 0.00 0.00 0.00 45 1017.7
20260505170019 80 88 3.0 11.0 0.00 0.00 0.00 43 1017.7
20260505165504 80 120 5.0 11.0 0.00 0.00 0.00 44 1017.9
20260505165006 80 184 2.0 7.0 0.00 0.00 0.00 46 1017.9
20260505164502 80 133 2.0 12.0 0.00 0.00 0.00 43 1018.0
20260505164002 80 162 7.0 11.0 0.00 0.00 0.00 43 1018.1
20260505163502 80 74 3.0 7.0 0.00 0.00 0.00 47 1018.2
20260505163014 80 213 4.0 7.0 0.00 0.00 0.00 47 1018.2
20260505162503 80 148 3.0 6.0 0.00 0.00 0.00 46 1018.4
20260505162003 80 44 3.0 6.0 0.00 0.00 0.00 47 1018.5
20260505161522 79 16 1.0 4.0 0.00 0.00 0.00 48 1018.4
20260505161002 79 30 2.0 5.0 0.00 0.00 0.00 48 1018.4
20260505160504 80 162 3.0 5.0 0.00 0.00 0.00 49 1018.4
20260505152006 78 150 3.0 8.0 0.00 0.00 0.00 55 1018.7
20260505151503 77 82 2.0 7.0 0.00 0.00 0.00 57 1018.7
20260505151003 77 354 1.0 8.0 0.00 0.00 0.00 58 1018.7
20260505150503 76 95 3.0 8.0 0.00 0.00 0.00 58 1018.8
20260505140505 74 143 4.0 8.0 0.00 0.00 0.00 65 1018.6
20260505125004 64 186 3.0 5.0 0.00 0.00 0.00 87 1018.2
20260505124508 63 185 3.0 4.0 0.00 0.00 0.00 89 1018.1
20260505124005 62 223 0.0 2.0 0.00 0.00 0.00 91 1018.1
20260505123508 61 282 0.0 2.0 0.00 0.00 0.00 92 1018.0
20260505123011 60 283 0.0 1.0 0.00 0.00 0.00 93 1018.1
20260505122505 59 283 0.0 2.0 0.00 0.00 0.00 94 1018.1
20260505122006 58 283 0.0 2.0 0.00 0.00 0.00 93 1018.2
20260505121518 58 283 0.0 0.0 0.00 0.00 0.00 94 1018.2
20260505121003 57 283 0.0 0.0 0.00 0.00 0.00 93 1018.2
20260505120504 56 283 0.0 0.0 0.00 0.00 0.00 93 1018.1
20260505120004 56 283 0.0 0.0 0.00 0.00 0.00 93 1018.1
20260505115507 55 283 0.0 0.0 0.00 0.00 0.00 93 1017.9
20260505115003 55 283 0.0 0.0 0.00 0.00 0.00 93 1017.8
20260505114506 54 283 0.0 0.0 0.00 0.00 0.00 93 1017.9
20260505114003 54 283 0.0 0.0 0.00 0.00 0.00 93 1017.8
20260505113504 54 283 0.0 0.0 0.00 0.00 0.00 93 1017.7
20260505113012 54 283 0.0 0.0 0.00 0.00 0.00 93 1017.6
20260505111002 53 159 0.0 0.0 0.00 0.00 0.00 93 1017.6
20260505102006 53 148 0.0 0.0 0.00 0.00 0.00 92 1017.3
20260505101514 53 148 0.0 0.0 0.00 0.00 0.00 92 1017.3
20260505101008 53 148 0.0 0.0 0.00 0.00 0.00 92 1017.4
20260505100506 53 148 0.0 0.0 0.00 0.00 0.00 92 1017.2
20260505100004 53 148 0.0 0.0 0.00 0.00 0.00 92 1017.1
20260505095503 53 148 0.0 0.0 0.00 0.00 0.00 92 1017.0
20260505095002 53 148 0.0 0.0 0.00 0.00 0.00 92 1017.1
20260505094504 53 148 0.0 0.0 0.00 0.00 0.00 92 1017.0
20260505094003 53 148 0.0 0.0 0.00 0.00 0.00 92 1017.0
20260505093507 53 148 0.0 0.0 0.00 0.00 0.00 92 1016.9
20260505093009 53 148 0.0 0.0 0.00 0.00 0.00 92 1016.8
20260505092503 53 148 0.0 0.0 0.00 0.00 0.00 92 1016.7
20260505092007 53 148 0.0 0.0 0.00 0.00 0.00 91 1016.7
20260505091508 54 148 0.0 0.0 0.00 0.00 0.00 91 1016.5
20260505091005 54 148 0.0 0.0 0.00 0.00 0.00 91 1016.4
20260505090503 54 148 0.0 0.0 0.00 0.00 0.00 91 1016.4
20260505090015 54 148 0.0 0.0 0.00 0.00 0.00 92 1016.5
20260505085507 54 148 0.0 0.0 0.00 0.00 0.00 92 1016.5
20260505085010 54 148 0.0 0.0 0.00 0.00 0.00 92 1016.5
20260505084510 54 148 0.0 0.0 0.00 0.00 0.00 92 1016.5
20260505084003 54 148 0.0 0.0 0.00 0.00 0.00 91 1016.5
20260505083503 54 148 0.0 0.0 0.00 0.00 0.00 91 1016.5
20260505083013 54 148 0.0 0.0 0.00 0.00 0.00 92 1016.4
20260505082504 54 148 0.0 0.0 0.00 0.00 0.00 91 1016.5
20260505082004 54 148 0.0 0.0 0.00 0.00 0.00 91 1016.4
20260505081509 54 148 0.0 0.0 0.00 0.00 0.00 91 1016.4
20260505081006 55 148 0.0 0.0 0.00 0.00 0.00 91 1016.4
20260505080510 55 148 0.0 0.0 0.00 0.00 0.00 91 1016.3
20260505080027 55 148 0.0 0.0 0.00 0.00 0.00 91 1016.4
20260505075506 55 148 0.0 0.0 0.00 0.00 0.00 91 1016.5
20260505075012 55 148 0.0 0.0 0.00 0.00 0.00 91 1016.5
20260505074518 55 148 0.0 0.0 0.00 0.00 0.00 91 1016.6
20260505074008 55 148 0.0 0.0 0.00 0.00 0.00 91 1016.5
20260505073508 55 148 0.0 0.0 0.00 0.00 0.00 90 1016.6
20260505073006 55 148 0.0 0.0 0.00 0.00 0.00 90 1016.7
20260505072505 55 148 0.0 0.0 0.00 0.00 0.00 90 1016.7
20260505072004 55 148 0.0 0.0 0.00 0.00 0.00 90 1016.7
20260505071507 55 148 0.0 0.0 0.00 0.00 0.00 90 1016.8
20260505071006 56 148 0.0 0.0 0.00 0.00 0.00 91 1016.7
20260505070508 56 148 0.0 0.0 0.00 0.00 0.00 91 1016.7
20260505070015 56 148 0.0 0.0 0.00 0.00 0.00 90 1017.0
20260505065507 56 147 0.0 0.0 0.00 0.00 0.00 90 1017.0
20260505065007 56 147 0.0 0.0 0.00 0.00 0.00 90 1017.0
20260505064516 56 147 0.0 0.0 0.00 0.00 0.00 90 1017.0
20260505064009 56 147 0.0 0.0 0.00 0.00 0.00 90 1017.1
20260505063509 56 147 0.0 0.0 0.00 0.00 0.00 90 1017.1
20260505063021 56 147 0.0 0.0 0.00 0.00 0.00 89 1017.1
20260505062509 56 147 0.0 0.0 0.00 0.00 0.00 90 1017.1
20260505062012 56 147 0.0 0.0 0.00 0.00 0.00 89 1017.1
20260505061508 56 147 0.0 0.0 0.00 0.00 0.00 89 1017.3
20260505061007 56 147 0.0 0.0 0.00 0.00 0.00 89 1017.3
20260505060504 57 147 0.0 0.0 0.00 0.00 0.00 89 1017.4
20260505060002 57 147 0.0 0.0 0.00 0.00 0.00 89 1017.4
20260505055502 57 147 0.0 0.0 0.00 0.00 0.00 89 1017.5
20260505055003 57 147 0.0 2.0 0.00 0.00 0.00 89 1017.6
20260505054503 57 147 0.0 2.0 0.00 0.00 0.00 89 1017.5
20260505054003 57 147 0.0 1.0 0.00 0.00 0.00 89 1017.5
20260505053503 57 147 0.0 1.0 0.00 0.00 0.00 89 1017.5
20260505053003 57 147 0.0 1.0 0.00 0.00 0.00 88 1017.6
20260505052501 58 159 0.0 1.0 0.00 0.00 0.00 88 1017.7
20260505052002 58 160 0.0 1.0 0.00 0.00 0.00 88 1018.0
20260505051503 58 160 0.0 1.0 0.00 0.00 0.00 88 1018.0
20260505051004 58 160 0.0 1.0 0.00 0.00 0.00 88 1018.0
20260505050506 58 160 1.0 2.0 0.00 0.00 0.00 87 1018.0
20260505041504 60 128 1.0 2.0 0.00 0.00 0.00 85 1018.4
20260505041004 60 207 0.0 1.0 0.00 0.00 0.00 84 1018.5
20260505040504 60 206 0.0 1.0 0.00 0.00 0.00 84 1018.5
20260505040006 60 206 0.0 1.0 0.00 0.00 0.00 84 1018.5
20260505035503 60 206 1.0 2.0 0.00 0.00 0.00 83 1018.5
20260505035003 61 181 0.0 2.0 0.00 0.00 0.00 83 1018.3
20260505034504 61 181 0.0 0.0 0.00 0.00 0.00 83 1018.3
20260505034003 61 181 0.0 0.0 0.00 0.00 0.00 82 1018.3
20260505033003 61 181 0.0 1.0 0.00 0.00 0.00 82 1018.3
20260505032503 62 181 0.0 2.0 0.00 0.00 0.00 81 1018.4
20260505032004 62 184 0.0 2.0 0.00 0.00 0.00 81 1018.2
20260505031504 62 157 0.0 2.0 0.00 0.00 0.00 81 1018.2
20260505031003 62 181 0.0 1.0 0.00 0.00 0.00 80 1018.1
20260505030504 62 113 0.0 2.0 0.00 0.00 0.00 1018.1
20260505030006 63 135 0.0 2.0 0.00 0.00 0.00 79 1018.2
20260505025503 63 91 0.0 2.0 0.00 0.00 0.00 79 1018.3
20260505025004 63 193 0.0 2.0 0.00 0.00 0.00 79 1018.3
20260505024510 63 137 0.0 2.0 0.00 0.00 0.00 79 1018.2
20260505024005 63 177 0.0 2.0 0.00 0.00 0.00 78 1018.1
20260505023504 64 145 0.0 2.0 0.00 0.00 0.00 78 1018.0
20260505023006 64 179 0.0 2.0 0.00 0.00 0.00 77 1018.0
20260505022004 64 161 0.0 2.0 0.00 0.00 0.00 76 1018.0
20260505021503 65 136 0.0 2.0 0.00 0.00 0.00 75 1018.0
20260505021004 65 130 0.0 2.0 0.00 0.00 0.00 75 1017.9
20260505020503 65 151 0.0 2.0 0.00 0.00 0.00 75 1018.0
20260505020008 65 223 0.0 4.0 0.00 0.00 0.00 75 1017.7
20260505015503 65 115 0.0 4.0 0.00 0.00 0.00 74 1017.6
20260505015004 66 149 0.0 2.0 0.00 0.00 0.00 74 1017.6
20260505014510 66 127 0.0 2.0 0.00 0.00 0.00 73 1017.6
20260505014005 66 101 1.0 4.0 0.00 0.00 0.00 73 1017.7
20260505013507 66 165 1.0 4.0 0.00 0.00 0.00 73 1017.6
20260505013019 66 174 1.0 4.0 0.00 0.00 0.00 73 1017.7
20260505012505 66 167 0.0 3.0 0.00 0.00 0.00 73 1017.6
20260505011506 67 148 1.0 3.0 0.00 0.00 0.00 72 1017.6
20260505010504 67 69 1.0 2.0 0.00 0.00 0.00 71 1017.7
20260505010004 67 116 0.0 2.0 0.00 0.00 0.00 70 1017.6
20260505005504 68 120 0.0 3.0 0.00 0.00 0.00 70 1017.5
20260505005004 68 200 0.0 3.0 0.00 0.00 0.00 69 1017.5
20260505004513 68 108 0.0 3.0 0.00 0.00 0.00 69 1017.4
20260505004003 69 129 1.0 3.0 0.00 0.00 0.00 68 1017.4
20260505003506 69 154 1.0 3.0 0.00 0.00 0.00 68 1017.5
20260505003014 69 161 1.0 5.0 0.00 0.00 0.00 67 1017.5
20260505002508 70 166 1.0 5.0 0.00 0.00 0.00 66 1017.4
20260505002005 70 104 1.0 6.0 0.00 0.00 0.00 65 1017.3
20260505001514 71 150 2.0 6.0 0.00 0.00 0.00 65 1017.3
20260505001005 71 156 1.0 4.0 0.00 0.00 0.00 64 1017.3
20260505000503 71 141 1.0 6.0 0.00 0.00 0.00 63 1017.3
20260504235503 72 107 3.0 6.0 0.00 0.00 0.00 61 1017.3
20260504235004 73 107 1.0 5.0 0.00 0.00 0.00 61 1017.4
20260504234507 73 150 3.0 10.0 0.00 0.00 0.00 60 1017.3
20260504234004 73 77 3.0 10.0 0.00 0.00 0.00 60 1017.3
20260504233503 73 99 4.0 11.0 0.00 0.00 0.00 59 1017.2
20260504233017 74 98 3.0 11.0 0.00 0.00 0.00 58 1017.2
20260504232504 74 174 2.0 7.0 0.00 0.00 0.00 57 1017.1
20260504232003 74 162 3.0 8.0 0.00 0.00 0.00 57 1017.1
20260504231523 74 240 2.0 9.0 0.00 0.00 0.00 57 1017.2
20260504231010 75 91 5.0 9.0 0.00 0.00 0.00 56 1017.1
20260504230506 75 44 3.0 8.0 0.00 0.00 0.00 56 1017.1
20260504230016 75 95 4.0 12.0 0.00 0.00 0.00 55 1017.0
20260504225503 75 119 3.0 12.0 0.00 0.00 0.00 55 1016.9
20260504225007 75 82 6.0 12.0 0.00 0.00 0.00 55 1017.0
20260504224514 75 190 3.0 14.0 0.00 0.00 0.00 53 1017.1
20260504224005 75 79 5.0 14.0 0.00 0.00 0.00 53 1017.0
20260504223504 75 94 8.0 15.0 0.00 0.00 0.00 53 1017.0
20260504223012 76 108 6.0 13.0 0.00 0.00 0.00 52 1016.8
20260504222504 76 108 8.0 13.0 0.00 0.00 0.00 51 1017.0
20260504222006 76 174 4.0 14.0 0.00 0.00 0.00 51 1017.0
20260504221514 76 71 5.0 14.0 0.00 0.00 0.00 51 1017.0
20260504221008 76 120 3.0 12.0 0.00 0.00 0.00 50 1017.1
20260504220504 77 104 5.0 12.0 0.00 0.00 0.00 50 1017.1
20260504220018 77 86 5.0 12.0 0.00 0.00 0.00 49 1017.1
20260504215509 77 73 3.0 14.0 0.00 0.00 0.00 48 1017.0
20260504215009 77 119 3.0 14.0 0.00 0.00 0.00 48 1017.0
20260504214514 77 127 2.0 10.0 0.00 0.00 0.00 47 1017.1
20260504214011 77 142 4.0 10.0 0.00 0.00 0.00 45 1017.1
20260504213507 77 238 4.0 10.0 0.00 0.00 0.00 47 1017.0
20260504212006 78 116 6.0 9.0 0.00 0.00 0.00 45 1016.9
20260504211515 78 159 5.0 10.0 0.00 0.00 0.00 44 1016.9
20260504211004 78 101 5.0 9.0 0.00 0.00 0.00 43 1016.9
20260504210507 78 60 5.0 9.0 0.00 0.00 0.00 42 1017.0
20260504210003 78 76 4.0 9.0 0.00 0.00 0.00 42 1017.0
20260504205503 78 186 4.0 9.0 0.00 0.00 0.00 43 1016.9
20260504205007 78 84 5.0 14.0 0.00 0.00 0.00 41 1016.8
20260504204503 78 121 5.0 14.0 0.00 0.00 0.00 41 1016.9
20260504204003 78 169 6.0 11.0 0.00 0.00 0.00 40 1017.1
20260504203506 79 170 6.0 11.0 0.00 0.00 0.00 39 1017.1
20260504203019 78 148 6.0 11.0 0.00 0.00 0.00 38 1017.1
20260504202508 78 120 4.0 11.0 0.00 0.00 0.00 38 1017.1
20260504201511 79 213 2.0 10.0 0.00 0.00 0.00 37 1017.1